Вернуться в каталог

STARLINK-3892

АктивенСвязьVLEO
NORAD 52488·PAYLOAD·🇺🇸 United States

Запущен May 6, 2022 с Cape Canaveral Space Force Station

Loading…

Ближайшие Пролёты (ближайшие 24 часа)

TLE

СвежийSource: CelesTrak SupGP

Эпоха: Sep 15, 2026, 02:30 UTC

1 52488C 22049AP  26258.10465278 -.00003157  00000+0 -95820-4 0  2583
2 52488  53.1588 278.9942 0001451  95.5305 182.1401 15.33540861    12

Отслеживайте STARLINK-3892 в реальном времени с AllMySat

Download on the App Store